Regional Weather Roundup
Issued by NWS Jackson, KY

Home | Current Version | Previous Version | Text Only | Print | Product List | Glossary On
Versions: 1 2 3 4 5 6 7 8 9 10 11 12 13 14 15 16 17 18 19 20 21 22 23 24 25 26 27 28 29 30 31 32 33 34 35 36 37 38 39 40 41 42 43 44 45 46 47 48 49 50
000
ASUS43 KJKL 232219
RWRJKL

EAST KENTUCKY HOURLY WEATHER ROUNDUP
NATIONAL WEATHER SERVICE JACKSON KY
500 PM EST SUN NOV 23 2014

NOTE: "FAIR" INDICATES FEW OR NO CLOUDS BELOW 12,000 FEET WITH
NO SIGNIFICANT WEATHER AND/OR OBSTRUCTIONS TO VISIBILITY.

* THESE REPORTS ARE NOT UNDER NWS QUALITY CONTROL AND MAY NOT
  REPORT WEATHER SUCH AS PRECIPITATION AND FOG.

KYZ079-080-083-085-087-088-110-112-115-119-120-232300
...EASTERN KENTUCKY...

CITY           SKY/WX    TMP DP  RH WIND       PRES   REMARKS
JACKSON        CLOUDY    54  50  86 SE7       29.65F
LONDON         LGT RAIN  59  51  75 SE13G20   29.59F
SOMERSET*      LGT RAIN  54  54 100 SE5       29.56F
MONTICELLO*    CLOUDY    57  54  88 SE14G21   29.54F FOG
MIDDLESBORO*   RAIN      55  51  88 CALM      29.66F
HARLAN APT*    CLOUDY    54  50  87 E14G29    29.68F
BIG SANDY*     CLOUDY    54  51  87 SE10G16   29.70F
MOREHEAD APT*  CLOUDY    55  52  88 SE8G21    29.63F
$$

KYZ035-036-041-042-044-050-067-078-099-232300
...CENTRAL KENTUCKY...

CITY           SKY/WX    TMP DP  RH WIND       PRES   REMARKS
MT STERLING*   LGT RAIN  54  52  94 SE10      29.62F
FLEMING/MASON* CLOUDY    54  52  95 E15       29.61F
DANVILLE*      LGT RAIN  52  52 100 SE9       29.56F
RICHMOND*      CLOUDY    55  52  88 SE8       29.58F
LEXINGTON      LGT RAIN  53  52  96 SE16      29.56F FOG
FRANKFORT      RAIN      54  52  93 SE14G23   29.52F FOG
$$

KYZ091>093-OHZ055-061-077-WVZ005-015-034-035-042-232300
...SOUTHERN OHIO/WEST VIRGINIA...

CITY           SKY/WX    TMP DP  RH WIND       PRES   REMARKS
COVINGTON      RAIN      54  50  86 SE21G31   29.55F FOG
COLUMBUS       CLOUDY    60  39  45 SE13      29.67F
DAYTON         LGT RAIN  56  47  71 SE12      29.59F
WILMINGTON     LGT RAIN  56  45  66 SE15      29.61F
HUNTINGTON     LGT RAIN  57  51  80 SE10      29.70F
CHARLESTON     LGT RAIN  57  46  66 SE12G17   29.76F
PINEVILLE*     LGT RAIN  56  52  87 MISG      29.85F
BECKLEY        CLOUDY    50  44  80 SE18G25   29.85F
BLUEFIELD      LGT RAIN  52  46  80 SE22G44   29.87F
$$

VAZ002-007-008-TNZ017-027-036-066-071-232300
...SOUTHWEST VIRGINIA/EAST TENNESSEE...

CITY           SKY/WX    TMP DP  RH WIND       PRES   REMARKS
WISE*          LGT RAIN  50  50 100 S16G24    29.75F
JONESVILLE*    LGT RAIN  54  52  94 NE9       29.73F
ABINGDON*      LGT RAIN  55  51  86 SE6       29.83F
BRISTOL        LGT RAIN  55  51  86 E8        29.76F
KNOXVILLE      CLOUDY    54  53  97 NE3       29.62F
OAK RIDGE      LGT RAIN  54  52  93 E5        29.63F
CROSSVILLE     RAIN      56  51  84 SE10G23   29.56F
NASHVILLE      LGT RAIN  58  56  93 SE21G26   29.44F
$$

...KEY TO REMARKS...
VSB - VISIBILITY IN MILES
WCI - WIND CHILL INDEX
HX  - HEAT INDEX

$$


USA.gov is the U.S. government's official web portal to all federal, state and local government web resources and services.